Terminal Aerodrome Forecast
Issued by NWS

Home | Current Version | Previous Version | Text Only | Print | Product List | Glossary On
Versions: 1 2 3 4 5 6 7 8 9 10 11 12 13 14 15 16 17 18 19 20
000
FTUS43 KGRR 051100
TAFMKG
TAF
KMKG 051126Z 0512/0612 05007KT P6SM -RA OVC060
     FM051600 10010KT 5SM -RA OVC025
     FM051900 11009KT 3SM -RA BR OVC015
     FM052300 10007KT P6SM OVC015
     FM060000 10006KT 4SM BR OVC007
     FM060600 12007KT 2SM -DZ BR OVC003=

USA.gov is the U.S. government's official web portal to all federal, state and local government web resources and services.